Regional Weather Roundup
Issued by NWS Albany, NY

Home | Current Version | Previous Version | Text Only | Print | Product List | Glossary On
Versions: 1 2 3 4 5 6 7 8 9 10 11 12 13 14 15 16 17 18 19 20 21 22 23 24 25 26 27 28 29 30 31 32 33 34 35 36 37 38 39 40 41 42 43 44 45 46 47 48 49 50
608
ASUS41 KALY 240610
RWRALY

NEW YORK STATE HOURLY WEATHER ROUNDUP
NATIONAL WEATHER SERVICE ALBANY NY
200 AM EDT MON JUL 24 2017

NOTE: "FAIR" INDICATES FEW OR NO CLOUDS BELOW 12,000 FEET WITH NO
SIGNIFICANT WEATHER AND/OR NO OBSTRUCTIONS TO VISIBILITY.

NYZ032-033-038>043-046>054-057>066-NYZ062>081-082-084-240700-
EAST


CITY           SKY/WX    TMP DP  RH WIND       PRES   REMARKS
ALBANY         LGT RAIN  71  57  61 SE8G17    29.86S
GLENS FALLS    MOCLDY    64  57  78 SW3       29.87S
POUGHKEEPSIE   CLOUDY    69  61  75 SE8       29.85R
NEWBURGH       LGT RAIN  68  66  94 SE12      29.88R
MONTGOMERY     LGT RAIN  70  67  90 CALM      29.86R
WHITE PLAINS   MOCLDY    70  64  83 E8        29.85F
ISLIP          CLOUDY    71  67  87 E10       29.84F
NEW YORK CITY  CLOUDY    73  69  87 E12       29.82F
CENTRAL PARK   CLOUDY    73  67  81 VRB6      29.86F
$$

NYZ005>009-017-018-044>046-055-056-240700-
CENTRAL


CITY           SKY/WX    TMP DP  RH WIND       PRES   REMARKS
FULTON         CLOUDY    72  65  78 VRB5      29.73F
SYRACUSE       CLOUDY    71  65  81 SE8       29.74S
ROME           CLOUDY    71  64  78 E10       29.79S
ELMIRA         LGT RAIN  67  65  93 SW3       29.78R
BINGHAMTON     LGT RAIN  62  62 100 S8        29.85R
$$

NYZ026>034-041>043-087-240700-
NORTH


CITY           SKY/WX    TMP DP  RH WIND       PRES   REMARKS
WATERTOWN      CLOUDY    67  66  97 E7        29.74F
FORT DRUM      NOT AVBL
OGDENSBURG     FAIR      67  51  56 E9        29.81F
MASSENA        CLOUDY    65  49  56 NE9       29.85F
SARANAC LAKE   CLOUDY    59  49  69 NE6       29.87F
PLATTSBURGH    CLOUDY    63  51  65 NW3       29.87F
$$

NYZ001>004-010>016-019>021-085-240700-
WEST


CITY           SKY/WX    TMP DP  RH WIND       PRES   REMARKS
NIAGARA FALLS  MOCLDY    69  64  84 N3        29.72R
BUFFALO        MOCLDY    70  66  87 CALM      29.72S
DUNKIRK        CLOUDY    69  68  96 SW3       29.74S
JAMESTOWN      CLOUDY    66  63  88 W5        29.78F
WELLSVILLE     LGT RAIN  67  63  87 MISG      29.81F
ROCHESTER      CLOUDY    70  68  93 S3        29.71S
PENN YAN       CLOUDY    70  65  84 S6        29.76R
$$

             KEY
       WCI = WIND CHILL INDEX
       VSB = VISIBILITY
       HX  = HEAT INDEX
$$




USA.gov is the U.S. government's official web portal to all federal, state and local government web resources and services.